Starlink 1922

operational
NORAD ID: 46753 Int'l Des: 2020-074 Owner: SPXS Country: US Constellation: starlink
LEOCIRCULARSTARLINK_TYPE

About Starlink 1922

Description loading...

Live Position

Loading 3D Globe...

Upcoming Passes

Altitude History

Altitude vs Time

uPlot chart will show altitude changes over time

Two-Line Element Set

1 46753U 20074Q 25304.00002315 .02048359 00000-0 79920-1 0 9992
2 46753 53.0543 183.3219 0001655 106.9002 27.1571 15.21874905 5751
Epoch: Oct 31, 2025 • Age: 6 hours

Current Status

Altitude 501.5 km
Velocity 7.62 km/s
Sub-Earth Point 46.79°N, 105.1°E
Launch Date Oct 24, 2020
Age 5 years
Type internet

Technical Details

Classification Payload
Mass 260.00 kg
Dry Mass 248.00 kg
Total Mass 260.00 kg
Length 0.20 m
Diameter 2.80 m
Span 9.00 m
Shape Box + pan
Manufacturer SPXS
Bus Type Starlink
Phase Status In Orbit
Owner/State SPXS/US

Large Constellations

Loading constellations...